Location: Albany
(35.0170°S, 117.8920°E)
Time: 18:25:43
(UTC+08:00)

Vanguard 3 - Visible Passes

Search period start: 24 January 2021 00:00
Search period end: 03 February 2021 00:00
Orbit: 508 x 3261 km, 33.3° (Epoch: 23 January)

Date Brightness Start Highest point End Pass type
(mag) Time Alt. Az. Time Alt. Az. Time Alt. Az.
24 Jan 8.2 19:48:46 10° W 19:57:35 49° NNW 20:02:44 10° NE visible
25 Jan 8.7 20:48:41 10° W 20:54:38 24° NW 20:57:25 16° N visible
27 Jan 9.1 20:31:48 10° W 20:38:04 22° NW 20:42:12 11° N visible
29 Jan 9.4 20:14:51 10° W 20:21:23 21° NW 20:25:58 10° N visible
31 Jan 9.7 19:57:51 10° W 20:04:35 19° NW 20:09:25 10° N visible
02 Feb 10.0 19:40:50 10° W 19:47:41 18° NW 19:52:43 10° N visible
